[[{"header":{"parameterUnit":"m.s-1","parameterCategory":2,"la1":30.2991,"la2":30.254,"lo1":-89.0895,"lo2":-89.0444,"dy":0.0017,"dx":0.0017,"nx":28,"ny":28,"refTime":"2025-01-01T03:00:00:Z","depth":"0","parameterNumber":2,"parameterNumberName":"U-component_of_CURRENTS"},"data":[0,0,0,0,0,0,0,0,0,0,0,0,0,0,0,0,0,0,0,0,0,0,0,0,0,0,0,0,0,0,0,0,0,0,0,0,0,0,0,0,0,0,0,0,0,0,0,0,0,0,0,0,0,0,0,0,0,0,0.1647,0.1648,0,0.1705,0.1706,0.1706,0.171,0.1709,0.1709,0.1708,0.1703,0.1704,0.1704,0,0,0,0,0,0,0,0,0,0,0,0,0,0.1532,0.1534,0.1647,0.1648,0.1649,0.1705,0.1706,0.1706,0.171,0.1709,0.1709,0.1708,0.1703,0.1704,0.1704,0,0,0,0,0,0,0,0,0,0,0,0,0,0.1584,0.1535,0.1647,0.1659,0.1661,0.1705,0.1706,0.1706,0.171,0.1709,0.1709,0.1708,0.1703,0.1704,0.1704,0.1722,0,0,0.1706,0.1706,0,0,0,0,0,0,0,0,0.1581,0.1588,0.1656,0.1658,0.166,0.1701,0.1663,0.1709,0.171,0.169,0.1708,0.1708,0.1698,0.1699,0.171,0.1722,0.1721,0.1706,0.1706,0.1706,0.1706,0,0,0,0,0,0,0,0.1577,0.1585,0.1668,0.1657,0.166,0.1659,0.1665,0.1672,0.1695,0.1691,0.1692,0.1702,0.1699,0.171,0.171,0.1721,0.1706,0.1706,0.1706,0.1707,0.1753,0.1753,0,0,0,0,0,0,0.1575,0.1582,0.1667,0.167,0.162,0.1661,0.1669,0.1687,0.1696,0.1698,0.1702,0.1702,0.1709,0.1709,0.171,0.1742,0.1706,0.1707,0.1707,0.1752,0.1753,0.1754,0,0,0,0,0,0,0.1573,0.1583,0.1664,0.1628,0.1638,0.1664,0.1685,0.1689,0.1699,0.1706,0.1705,0.1709,0.1709,0.1709,0.1722,0.1741,0.1707,0.1707,0.1751,0.1752,0.1753,0.18,0,0,0,0,0,0,0.1569,0.1582,0.1595,0.1628,0.1641,0.1695,0.1686,0.1691,0.1707,0.1707,0.1711,0.171,0.1708,0.1721,0.1722,0.1741,0.1708,0.1749,0.1751,0.1753,0.1797,0.1803,0.1807,0,0,0,0,0,0.1565,0.1588,0.1596,0.1606,0.1659,0.1696,0.1702,0.1716,0.1708,0.172,0.1722,0.171,0.1733,0.1723,0.1724,0.1743,0.1749,0.1751,0.1753,0.1795,0.1802,0.1807,0,0,0,0,0,0,0.1546,0.1592,0.1601,0.1636,0.1665,0.1697,0.1712,0.1718,0.1731,0.1729,0.1723,0.1723,0.1742,0.1736,0.1725,0.1761,0.1738,0.1741,0.177,0.1776,0.1781,0.1788,0.1708,0,0,0,0,0,0.155,0.1577,0.1617,0.1645,0.166,0.1685,0.1701,0.1714,0.1731,0.1736,0.1737,0.1741,0.1753,0.1758,0.1766,0.1787,0.1799,0.1799,0.1804,0.1809,0.1815,0.1848,0.1857,0.1761,0.1761,0.1761,0,0,0.1549,0.1578,0.1593,0.1642,0.1664,0.1696,0.1692,0.1724,0.1748,0.1733,0.1757,0.1758,0.1762,0.1788,0.1795,0.1784,0.1847,0.1811,0.1815,0.1819,0.1851,0.1861,0.1869,0.1762,0.1762,0.1762,0,0,0.1562,0.1589,0.1616,0.1643,0.1685,0.1705,0.1714,0.1748,0.1761,0.1788,0.1784,0.1798,0.1811,0.1825,0.1831,0.1869,0.1872,0.1868,0.1902,0.1935,0.1943,0.195,0.1999,0.201,0.1872,0.1872,0.1872,0,0.1558,0.1602,0.1628,0.1662,0.1686,0.1709,0.1741,0.1764,0.1796,0.1813,0.1799,0.1836,0.1832,0.1873,0.1885,0.1881,0.1905,0.1879,0.1942,0.195,0.1956,0.2004,0.2016,0.1875,0.1875,0.1874,0.1874,0,0.1593,0.1627,0.1645,0.1695,0.1724,0.1757,0.1794,0.182,0.1832,0.1853,0.1891,0.1895,0.1918,0.192,0.1913,0.1963,0.1968,0.1944,0.1927,0.1969,0.2016,0.2028,0.1878,0.1878,0.1877,0.1876,0,0,0.1585,0.1656,0.1661,0.1689,0.1746,0.1774,0.1819,0.1869,0.1902,0.1925,0.1967,0.1985,0.1989,0.1996,0.1995,0.2019,0.2088,0.2004,0.2005,0.2055,0.218,0.2208,0.2223,0.2076,0.2078,0.208,0.2201,0,0.1604,0.1665,0.1698,0.1752,0.1787,0.1824,0.1865,0.1912,0.1945,0.1991,0.2009,0.2044,0.2019,0.2035,0.2059,0.208,0.2117,0.2058,0.2129,0.2132,0.2154,0.2237,0.2226,0.2334,0.2212,0.2214,0.2215,0,0.1627,0.1667,0.1722,0.1788,0.1806,0.1841,0.1912,0.1954,0.2023,0.2048,0.209,0.2107,0.2159,0.212,0.2195,0.2161,0.2178,0.2188,0.2193,0.2209,0.2182,0.2269,0.236,0.2341,0.2233,0.2231,0.223,0,0.1611,0.1683,0.1726,0.1749,0.1827,0.1857,0.1899,0.1969,0.2014,0.209,0.2132,0.2186,0.2228,0.2253,0.2288,0.2246,0.2372,0.2314,0.2362,0.2364,0.2364,0.2363,0.2445,0.237,0.2369,0.2369,0.2369,0,0.1621,0.1654,0.1721,0.1747,0.1793,0.1854,0.1911,0.1961,0.2047,0.2107,0.216,0.2225,0.2262,0.2336,0.2338,0.2414,0.2421,0.2398,0.2406,0.2382,0.2381,0.237,0.2347,0.2374,0.2373,0.2372,0.2371,0,0.1597,0.1644,0.169,0.1766,0.1787,0.182,0.1906,0.1954,0.2041,0.2127,0.2158,0.2279,0.2384,0.2437,0.2504,0.2497,0.2506,0.2564,0.2548,0.2551,0.2546,0.2526,0.2496,0.2402,0.2632,0.2633,0.2634,0,0.159,0.1615,0.1683,0.1705,0.1737,0.1792,0.1833,0.1929,0.199,0.2157,0.2203,0.2351,0.2449,0.2598,0.2632,0.2694,0.2586,0.2696,0.2601,0.2581,0.2564,0.2418,0.2328,0.2628,0.2629,0.263,0.2631,0,0.1566,0.1589,0.1624,0.167,0.171,0.1755,0.1829,0.1876,0.2003,0.2097,0.2245,0.2348,0.2537,0.2628,0.2737,0.2751,0.2608,0.2716,0.2698,0.2586,0.2431,0.2334,0.2521,0.2639,0.2638,0.2638,0.2637,0.2637,0.1533,0.1544,0.1588,0.1627,0.167,0.1717,0.1738,0.1833,0.1927,0.2069,0.221,0.2362,0.2582,0.2747,0.2745,0.2787,0.267,0.2733,0.272,0.2581,0.2457,0.2679,0.2795,0.2795,0.2795,0.2795,0.2795,0,0.1483,0.1509,0.1546,0.1586,0.1612,0.1658,0.1733,0.1758,0.1837,0.2015,0.2144,0.2418,0.2585,0.2726,0.2886,0.2826,0.2626,0.276,0.2559,0.247,0.2703,0.2672,0.2764,0.2764,0.2764,0.2764,0.2764,0.2764,0.1457,0.1471,0.1496,0.1518,0.1549,0.1564,0.1592,0.1644,0.1756,0.1938,0.2108,0.2275,0.2649,0.2955,0.3002,0.2906,0.2646,0.2575,0.2474,0.2687,0.2682,0.2677,0.2642,0.2726,0.2726,0.214,0.2137,0.2134]},{"header":{"parameterUnit":"m.s-1","parameterCategory":2,"la1":30.2991,"la2":30.254,"lo1":-89.0895,"lo2":-89.0444,"dy":0.0017,"dx":0.0017,"nx":28,"ny":28,"refTime":"2025-01-01T03:00:00:Z","depth":"0","parameterNumber":3,"parameterNumberName":"V-component_of_CURRENTS"},"data":[0,0,0,0,0,0,0,0,0,0,0,0,0,0,0,0,0,0,0,0,0,0,0,0,0,0,0,0,0,0,0,0,0,0,0,0,0,0,0,0,0,0,0,0,0,0,0,0,0,0,0,0,0,0,0,0,0,0,-0.0579,-0.058,0,-0.0616,-0.0616,-0.0616,-0.0647,-0.0648,-0.0648,-0.0648,-0.0669,-0.0669,-0.067,0,0,0,0,0,0,0,0,0,0,0,0,0,-0.0549,-0.055,-0.0579,-0.058,-0.058,-0.0616,-0.0616,-0.0617,-0.0647,-0.0648,-0.0648,-0.0648,-0.0669,-0.0669,-0.067,0,0,0,0,0,0,0,0,0,0,0,0,0,-0.0572,-0.055,-0.0579,-0.06,-0.0602,-0.0615,-0.0616,-0.0617,-0.0647,-0.0648,-0.0648,-0.0648,-0.0669,-0.0669,-0.067,-0.0663,0,0,-0.0671,-0.0671,0,0,0,0,0,0,0,0,-0.0571,-0.0573,-0.0596,-0.0598,-0.0601,-0.0627,-0.0613,-0.0631,-0.0647,-0.063,-0.0648,-0.0649,-0.0653,-0.0655,-0.0661,-0.0664,-0.0664,-0.0671,-0.0671,-0.0671,-0.0671,0,0,0,0,0,0,0,-0.0569,-0.0572,-0.0594,-0.0597,-0.0599,-0.0611,-0.0615,-0.0617,-0.0638,-0.0632,-0.0634,-0.0637,-0.0654,-0.0661,-0.0662,-0.0665,-0.0671,-0.0671,-0.0671,-0.0672,-0.0686,-0.0686,0,0,0,0,0,0,-0.0563,-0.057,-0.0593,-0.0595,-0.0586,-0.0611,-0.0615,-0.0618,-0.0639,-0.0642,-0.0637,-0.0639,-0.066,-0.0661,-0.0663,-0.0664,-0.0671,-0.0672,-0.0672,-0.0685,-0.0686,-0.0686,0,0,0,0,0,0,-0.0562,-0.0564,-0.0591,-0.0583,-0.0588,-0.0611,-0.0614,-0.0619,-0.0624,-0.0643,-0.0646,-0.0638,-0.066,-0.0662,-0.0667,-0.0665,-0.0672,-0.0672,-0.0685,-0.0685,-0.0686,-0.0661,0,0,0,0,0,0,-0.0561,-0.0564,-0.056,-0.0583,-0.0588,-0.0595,-0.0614,-0.0619,-0.0626,-0.0628,-0.0645,-0.0647,-0.0661,-0.0666,-0.0667,-0.0665,-0.0672,-0.0685,-0.0685,-0.0686,-0.0661,-0.066,-0.0659,0,0,0,0,0,-0.056,-0.0547,-0.056,-0.0562,-0.0583,-0.0595,-0.0598,-0.0617,-0.0625,-0.0624,-0.064,-0.0647,-0.0669,-0.0666,-0.0668,-0.0666,-0.0685,-0.0685,-0.0686,-0.0662,-0.066,-0.0659,0,0,0,0,0,0,-0.0525,-0.055,-0.0564,-0.0559,-0.0576,-0.06,-0.0596,-0.0612,-0.0623,-0.0624,-0.0644,-0.0647,-0.0653,-0.0662,-0.0659,-0.0672,-0.068,-0.068,-0.0661,-0.066,-0.0659,-0.0649,-0.0673,0,0,0,0,0,-0.0518,-0.0519,-0.0546,-0.054,-0.0547,-0.0571,-0.0577,-0.0592,-0.0607,-0.0612,-0.0627,-0.0642,-0.0655,-0.0659,-0.067,-0.0671,-0.0687,-0.0673,-0.0672,-0.0671,-0.0664,-0.0699,-0.0701,-0.0687,-0.0687,-0.0687,0,0,-0.0501,-0.0515,-0.0515,-0.0533,-0.0546,-0.0548,-0.0575,-0.058,-0.0583,-0.0611,-0.0615,-0.0635,-0.0655,-0.0662,-0.0665,-0.0668,-0.0681,-0.0671,-0.067,-0.0664,-0.07,-0.0701,-0.0702,-0.0687,-0.0687,-0.0687,0,0,-0.0467,-0.0482,-0.0474,-0.0486,-0.0506,-0.0524,-0.0524,-0.0549,-0.0562,-0.0572,-0.0596,-0.0616,-0.063,-0.065,-0.066,-0.0657,-0.0674,-0.066,-0.0643,-0.0678,-0.0679,-0.068,-0.0692,-0.0695,-0.0659,-0.0659,-0.0659,0,-0.0446,-0.0442,-0.0471,-0.0467,-0.047,-0.051,-0.05,-0.0519,-0.0545,-0.0551,-0.0568,-0.0605,-0.0625,-0.0639,-0.0644,-0.0653,-0.0668,-0.0646,-0.0676,-0.0677,-0.0679,-0.0691,-0.0694,-0.0658,-0.0658,-0.0658,-0.0658,0,-0.0412,-0.0408,-0.0401,-0.0414,-0.0421,-0.0418,-0.045,-0.0461,-0.0485,-0.0509,-0.0532,-0.0571,-0.0592,-0.0608,-0.0626,-0.0647,-0.0651,-0.067,-0.0677,-0.0679,-0.0691,-0.0695,-0.0656,-0.0657,-0.0657,-0.0657,0,0,-0.0361,-0.0375,-0.0371,-0.0365,-0.0392,-0.039,-0.0399,-0.0417,-0.0414,-0.0462,-0.0463,-0.0515,-0.0544,-0.0558,-0.0591,-0.0628,-0.0658,-0.0652,-0.0655,-0.0659,-0.0718,-0.0694,-0.0695,-0.0686,-0.0686,-0.0687,-0.0717,0,-0.0324,-0.0302,-0.0322,-0.0298,-0.0288,-0.0324,-0.0323,-0.0346,-0.0376,-0.0389,-0.0451,-0.0466,-0.0523,-0.0531,-0.058,-0.0634,-0.0669,-0.0647,-0.0719,-0.0721,-0.0696,-0.07,-0.069,-0.0714,-0.0721,-0.0722,-0.0722,0,-0.0283,-0.0274,-0.0244,-0.0237,-0.0235,-0.0228,-0.023,-0.0237,-0.0276,-0.03,-0.0345,-0.0388,-0.0445,-0.0493,-0.0599,-0.0583,-0.0646,-0.0697,-0.07,-0.0688,-0.0704,-0.0716,-0.0721,-0.088,-0.0729,-0.0728,-0.0728,0,-0.023,-0.0216,-0.0188,-0.0187,-0.0189,-0.0177,-0.0181,-0.0206,-0.0198,-0.0242,-0.0237,-0.0326,-0.0346,-0.0458,-0.0564,-0.0584,-0.0673,-0.0713,-0.0751,-0.0749,-0.0759,-0.0756,-0.0921,-0.0788,-0.0788,-0.0788,-0.0788,0,-0.0183,-0.0158,-0.0158,-0.014,-0.0097,-0.0122,-0.0085,-0.0104,-0.0114,-0.0085,-0.0185,-0.0169,-0.0339,-0.0407,-0.0532,-0.0639,-0.065,-0.0742,-0.0758,-0.0748,-0.0744,-0.0897,-0.1,-0.0789,-0.0789,-0.0789,-0.0789,0,-0.0128,-0.0132,-0.0094,-0.0081,-0.007,-0.0039,-0.0014,0.0015,-0.0012,0.0025,0.002,-0.0048,-0.0132,-0.0292,-0.0449,-0.0568,-0.0781,-0.0726,-0.0688,-0.0699,-0.0889,-0.099,-0.1165,-0.1236,-0.0781,-0.0781,-0.0781,0,-0.0098,-0.0072,-0.0038,-0.0003,0.0008,0.0047,0.0083,0.0068,0.011,0.0117,0.0157,0.009,0.0076,-0.0145,-0.0372,-0.0578,-0.0749,-0.0707,-0.0754,-0.0894,-0.102,-0.1098,-0.1152,-0.0758,-0.0757,-0.0757,-0.0757,0,-0.0032,-0.0023,0.001,0.0083,0.0131,0.0184,0.0238,0.0289,0.0293,0.0334,0.0397,0.0387,0.0181,-0.0005,-0.0295,-0.0462,-0.0832,-0.0703,-0.0876,-0.1034,-0.1106,-0.1181,-0.0731,-0.0753,-0.0753,-0.0754,-0.0754,-0.0754,0.0022,0.0062,0.011,0.0183,0.0241,0.0331,0.0402,0.0471,0.0561,0.0652,0.0611,0.0639,0.0317,-0.0069,-0.032,-0.0775,-0.0801,-0.0917,-0.1031,-0.1098,-0.1169,-0.069,-0.0713,-0.0713,-0.0713,-0.0713,-0.0713,0,0.0103,0.0144,0.0213,0.0302,0.0389,0.0398,0.0519,0.0605,0.0748,0.0823,0.0882,0.0745,0.0348,-0.0088,-0.0688,-0.1027,-0.1189,-0.1238,-0.1379,-0.142,-0.1016,-0.1016,-0.1071,-0.1071,-0.1071,-0.1071,-0.1071,-0.1071,0.0148,0.0234,0.0267,0.0423,0.0491,0.0627,0.071,0.0835,0.0927,0.1052,0.1077,0.1047,0.0711,-0.041,-0.119,-0.1396,-0.1672,-0.1733,-0.1863,-0.1622,-0.1602,-0.1582,-0.1608,-0.1786,-0.1787,-0.2215,-0.222,-0.2223]}],[{"header":{"parameterUnit":"m.s-1","parameterCategory":2,"la1":30.2991,"la2":30.254,"lo1":-89.0895,"lo2":-89.0444,"dy":0.0017,"dx":0.0017,"nx":28,"ny":28,"refTime":"2025-01-01T03:00:00:Z","depth":"2","parameterNumber":2,"parameterNumberName":"U-component_of_CURRENTS"},"data":[0,0,0,0,0,0,0,0,0,0,0,0,0,0,0,0,0,0,0,0,0,0,0,0,0,0,0,0,0,0,0,0,0,0,0,0,0,0,0,0,0,0,0,0,0,0,0,0,0,0,0,0,0,0,0,0,0,0,0.1618,0.1618,0,0.1671,0.1671,0.1671,0.1676,0.1676,0.1675,0.1675,0.1675,0.1675,0.1675,0,0,0,0,0,0,0,0,0,0,0,0,0,0.1507,0.1509,0.1618,0.1618,0.1619,0.167,0.1671,0.1672,0.1676,0.1676,0.1675,0.1675,0.1674,0.1675,0.1675,0,0,0,0,0,0,0,0,0,0,0,0,0,0.1556,0.151,0.1617,0.1629,0.163,0.167,0.1671,0.1672,0.1676,0.1676,0.1675,0.1674,0.1674,0.1675,0.1675,0.1692,0,0,0.1677,0.1677,0,0,0,0,0,0,0,0,0.1553,0.1559,0.1626,0.1628,0.163,0.1667,0.1632,0.1676,0.1676,0.1657,0.1675,0.1674,0.1669,0.167,0.168,0.1692,0.1692,0.1677,0.1678,0.1678,0.1678,0,0,0,0,0,0,0,0.1549,0.1557,0.1637,0.1627,0.163,0.1627,0.1633,0.164,0.1664,0.1659,0.166,0.1668,0.1669,0.1679,0.168,0.1692,0.1677,0.1678,0.1678,0.1678,0.1728,0.1729,0,0,0,0,0,0,0.1548,0.1554,0.1635,0.1639,0.1591,0.1629,0.1636,0.1655,0.1665,0.1667,0.1669,0.1668,0.1678,0.1679,0.1679,0.1716,0.1678,0.1678,0.1679,0.1727,0.1728,0.1729,0,0,0,0,0,0,0.1546,0.1555,0.1633,0.1598,0.1608,0.1632,0.1653,0.1656,0.1668,0.1673,0.1673,0.1677,0.1678,0.1679,0.1694,0.1715,0.1679,0.1679,0.1726,0.1727,0.1728,0.1778,0,0,0,0,0,0,0.1542,0.1554,0.1568,0.1598,0.161,0.1664,0.1654,0.1658,0.1675,0.1675,0.1681,0.168,0.1678,0.1693,0.1694,0.1715,0.168,0.1724,0.1726,0.1728,0.1775,0.1781,0.1786,0,0,0,0,0,0.1538,0.1561,0.1569,0.1579,0.1629,0.1665,0.1671,0.1684,0.1676,0.1689,0.1692,0.168,0.1705,0.1694,0.1696,0.1717,0.1724,0.1726,0.1728,0.1772,0.178,0.1786,0,0,0,0,0,0,0.1521,0.1565,0.1574,0.1609,0.1638,0.1666,0.1681,0.1687,0.1701,0.1699,0.1693,0.1694,0.1715,0.1709,0.1697,0.1736,0.1712,0.1715,0.1746,0.1752,0.1757,0.1764,0.168,0,0,0,0,0,0.1525,0.1553,0.1591,0.1619,0.1634,0.1657,0.1672,0.1685,0.1701,0.1707,0.1709,0.1714,0.1726,0.1733,0.174,0.1763,0.1774,0.1777,0.1782,0.1787,0.1794,0.1827,0.1836,0.1736,0.1736,0.1736,0,0,0.1524,0.1553,0.1568,0.1617,0.1637,0.1668,0.1664,0.1695,0.1719,0.1704,0.173,0.1732,0.1736,0.1763,0.1771,0.176,0.1825,0.1789,0.1793,0.1798,0.183,0.184,0.1849,0.1738,0.1737,0.1737,0,0,0.1537,0.1565,0.1591,0.1618,0.1659,0.1679,0.1688,0.1721,0.1735,0.1763,0.1759,0.1775,0.1789,0.1803,0.1809,0.1849,0.1851,0.1849,0.1885,0.1917,0.1926,0.1934,0.1979,0.1991,0.1853,0.1853,0.1853,0,0.1533,0.1576,0.1603,0.1636,0.166,0.1683,0.1714,0.1738,0.177,0.1789,0.1775,0.1814,0.1811,0.1853,0.1866,0.1862,0.1885,0.186,0.1925,0.1933,0.194,0.1985,0.1996,0.1856,0.1856,0.1855,0.1855,0,0.1567,0.1601,0.1618,0.1668,0.1697,0.173,0.1767,0.1794,0.1807,0.183,0.1871,0.1876,0.19,0.1903,0.1896,0.1948,0.1951,0.1928,0.191,0.1953,0.1997,0.2009,0.186,0.1859,0.1858,0.1857,0,0,0.1559,0.1628,0.1634,0.1662,0.1719,0.1747,0.1792,0.1844,0.1878,0.1903,0.1948,0.1968,0.1973,0.1981,0.198,0.2005,0.2075,0.1991,0.1991,0.2039,0.2165,0.2173,0.2187,0.2064,0.2066,0.2068,0.2183,0,0.1577,0.1637,0.1669,0.1723,0.1757,0.1795,0.1837,0.1885,0.1921,0.1969,0.199,0.2027,0.2004,0.202,0.2046,0.2067,0.2105,0.2047,0.2114,0.2116,0.212,0.22,0.2029,0.2118,0.2194,0.2196,0.2198,0,0.1599,0.1638,0.1692,0.1758,0.1776,0.181,0.1884,0.1926,0.1998,0.2025,0.207,0.2089,0.2144,0.2106,0.2182,0.2148,0.2165,0.2176,0.218,0.2177,0.2146,0.2083,0.2136,0.2216,0.2215,0.2214,0.2212,0,0.1582,0.1653,0.1696,0.1719,0.1796,0.1828,0.1869,0.1942,0.1989,0.2067,0.211,0.2167,0.2209,0.2236,0.227,0.2232,0.2353,0.2299,0.2328,0.2329,0.2192,0.2178,0.2355,0.2355,0.2355,0.2355,0.2354,0,0.1592,0.1624,0.1691,0.1715,0.1763,0.1824,0.1882,0.1934,0.2021,0.2081,0.2137,0.2199,0.2243,0.2314,0.2318,0.2383,0.2399,0.2362,0.2367,0.2207,0.2193,0.2271,0.2259,0.2359,0.2358,0.2357,0.2356,0,0.1568,0.1614,0.166,0.1735,0.1757,0.1791,0.1878,0.1926,0.2015,0.2099,0.2131,0.2251,0.2347,0.2402,0.2469,0.2459,0.2502,0.2514,0.2339,0.2321,0.2441,0.2431,0.2558,0.2559,0.256,0.2561,0.2562,0,0.1561,0.1586,0.1653,0.1675,0.1708,0.1764,0.1804,0.1902,0.1961,0.2124,0.2169,0.2309,0.2393,0.253,0.2541,0.2592,0.2576,0.2448,0.2336,0.2474,0.2466,0.2454,0.2442,0.2178,0.2175,0.2174,0.2172,0,0.1538,0.1562,0.1595,0.164,0.168,0.1725,0.1799,0.1844,0.197,0.206,0.2195,0.2285,0.244,0.2435,0.2522,0.2506,0.2425,0.2413,0.2612,0.2158,0.2127,0.2115,0.2114,0.2155,0.2156,0.2158,0.2159,0.2159,0.1506,0.1517,0.1559,0.1598,0.164,0.1685,0.1706,0.1792,0.188,0.1995,0.2128,0.2203,0.2283,0.2336,0.2301,0.2271,0.2416,0.2288,0.2288,0.2293,0.2234,0.2206,0.2239,0.2241,0.2243,0.2245,0.2246,0,0.1454,0.1482,0.1517,0.1556,0.1577,0.1627,0.1698,0.1705,0.177,0.1892,0.1988,0.1915,0.1967,0.2025,0.1979,0.2016,0.1934,0.1915,0.1781,0.1804,0.1822,0.1732,0.1608,0.1605,0.1603,0.16,0,0,0.1427,0.1438,0.1463,0.148,0.1514,0.1521,0.1547,0.1567,0.1629,0.1658,0.1693,0.1866,0.1987,0.1756,0.1763,0.1672,0.1702,0.1609,0.2135,0.2,0.2014,0.2073,0.1967,0,0,0,0,0]},{"header":{"parameterUnit":"m.s-1","parameterCategory":2,"la1":30.2991,"la2":30.254,"lo1":-89.0895,"lo2":-89.0444,"dy":0.0017,"dx":0.0017,"nx":28,"ny":28,"refTime":"2025-01-01T03:00:00:Z","depth":"2","parameterNumber":3,"parameterNumberName":"V-component_of_CURRENTS"},"data":[0,0,0,0,0,0,0,0,0,0,0,0,0,0,0,0,0,0,0,0,0,0,0,0,0,0,0,0,0,0,0,0,0,0,0,0,0,0,0,0,0,0,0,0,0,0,0,0,0,0,0,0,0,0,0,0,0,0,-0.0361,-0.0362,0,-0.0394,-0.0394,-0.0395,-0.0435,-0.0436,-0.0436,-0.0437,-0.0475,-0.0476,-0.0476,0,0,0,0,0,0,0,0,0,0,0,0,0,-0.0336,-0.0337,-0.0361,-0.0362,-0.0362,-0.0394,-0.0394,-0.0395,-0.0435,-0.0436,-0.0436,-0.0437,-0.0475,-0.0476,-0.0476,0,0,0,0,0,0,0,0,0,0,0,0,0,-0.0357,-0.0337,-0.0361,-0.0385,-0.0388,-0.0394,-0.0394,-0.0395,-0.0435,-0.0436,-0.0437,-0.0437,-0.0475,-0.0476,-0.0476,-0.0465,0,0,-0.0479,-0.0479,0,0,0,0,0,0,0,0,-0.0356,-0.0358,-0.0381,-0.0384,-0.0386,-0.041,-0.04,-0.0418,-0.0435,-0.0418,-0.0437,-0.0438,-0.0453,-0.0455,-0.0461,-0.0467,-0.0468,-0.0479,-0.0479,-0.048,-0.048,0,0,0,0,0,0,0,-0.0354,-0.0357,-0.0375,-0.0382,-0.0385,-0.0395,-0.0399,-0.0403,-0.0431,-0.042,-0.0422,-0.0424,-0.0455,-0.046,-0.0462,-0.0469,-0.0479,-0.048,-0.048,-0.048,-0.0502,-0.0502,0,0,0,0,0,0,-0.0347,-0.0355,-0.0374,-0.0376,-0.0371,-0.0395,-0.0399,-0.0403,-0.0431,-0.0436,-0.0423,-0.0426,-0.0459,-0.0461,-0.0464,-0.0474,-0.048,-0.048,-0.0481,-0.0502,-0.0502,-0.0502,0,0,0,0,0,0,-0.0346,-0.0348,-0.0373,-0.0366,-0.0369,-0.0394,-0.0398,-0.0403,-0.0415,-0.0434,-0.0439,-0.0431,-0.0459,-0.0463,-0.0475,-0.0475,-0.0481,-0.0481,-0.0501,-0.0502,-0.0502,-0.0479,0,0,0,0,0,0,-0.0346,-0.0348,-0.0347,-0.0365,-0.0369,-0.0378,-0.0397,-0.0403,-0.0414,-0.0418,-0.0442,-0.0446,-0.046,-0.0473,-0.0475,-0.0476,-0.0482,-0.0501,-0.0502,-0.0502,-0.048,-0.0478,-0.0477,0,0,0,0,0,-0.0345,-0.0334,-0.0347,-0.035,-0.0368,-0.0378,-0.0381,-0.0402,-0.0414,-0.0417,-0.0435,-0.0446,-0.0476,-0.0474,-0.0476,-0.0477,-0.0501,-0.0501,-0.0502,-0.048,-0.0479,-0.0477,0,0,0,0,0,0,-0.0319,-0.0337,-0.0353,-0.0348,-0.0365,-0.0384,-0.0383,-0.04,-0.0417,-0.0421,-0.0443,-0.0448,-0.046,-0.047,-0.0467,-0.0485,-0.0492,-0.0492,-0.0475,-0.0473,-0.0472,-0.0463,-0.0483,0,0,0,0,0,-0.0313,-0.0313,-0.0336,-0.0333,-0.0339,-0.0363,-0.0369,-0.0385,-0.0402,-0.0411,-0.043,-0.0448,-0.0461,-0.0469,-0.0482,-0.0486,-0.0502,-0.049,-0.0489,-0.0487,-0.0483,-0.0517,-0.0519,-0.0503,-0.0503,-0.0503,0,0,-0.03,-0.0311,-0.0311,-0.0328,-0.034,-0.0341,-0.0369,-0.0376,-0.0379,-0.041,-0.0419,-0.0442,-0.0461,-0.0472,-0.0478,-0.0481,-0.0499,-0.0488,-0.0487,-0.0482,-0.0518,-0.0519,-0.0521,-0.0503,-0.0503,-0.0503,0,0,-0.027,-0.0286,-0.0277,-0.0288,-0.0307,-0.0323,-0.0325,-0.035,-0.0366,-0.0379,-0.0403,-0.0428,-0.0445,-0.0464,-0.0473,-0.0471,-0.0492,-0.0477,-0.0463,-0.0496,-0.0498,-0.0499,-0.0513,-0.0516,-0.0476,-0.0476,-0.0476,0,-0.0254,-0.0249,-0.0275,-0.027,-0.0272,-0.0313,-0.0302,-0.0321,-0.0349,-0.0357,-0.0379,-0.0419,-0.0441,-0.0453,-0.0459,-0.0468,-0.0485,-0.0465,-0.0495,-0.0497,-0.0499,-0.0512,-0.0516,-0.0475,-0.0475,-0.0475,-0.0475,0,-0.022,-0.0217,-0.021,-0.022,-0.0227,-0.0225,-0.0253,-0.0267,-0.0294,-0.0318,-0.0345,-0.0386,-0.041,-0.0426,-0.0444,-0.0466,-0.0472,-0.0489,-0.0497,-0.0499,-0.0513,-0.0517,-0.0474,-0.0474,-0.0474,-0.0474,0,0,-0.018,-0.0185,-0.0183,-0.0176,-0.02,-0.0198,-0.0205,-0.0222,-0.022,-0.0273,-0.0276,-0.0329,-0.0364,-0.0378,-0.0411,-0.0448,-0.0481,-0.0475,-0.0477,-0.0484,-0.0544,-0.0523,-0.0525,-0.0508,-0.0509,-0.051,-0.0544,0,-0.0147,-0.0121,-0.0136,-0.0111,-0.0099,-0.0133,-0.0131,-0.0154,-0.0185,-0.02,-0.0264,-0.0282,-0.0341,-0.0354,-0.0403,-0.0457,-0.0493,-0.0469,-0.0543,-0.0545,-0.0524,-0.053,-0.0498,-0.0524,-0.0548,-0.0549,-0.055,0,-0.0109,-0.0096,-0.0064,-0.0052,-0.0049,-0.0043,-0.0045,-0.0052,-0.009,-0.0116,-0.0164,-0.0209,-0.0268,-0.0319,-0.0426,-0.0409,-0.0474,-0.0525,-0.0528,-0.0518,-0.0532,-0.0529,-0.0531,-0.0557,-0.0556,-0.0556,-0.0555,0,-0.0062,-0.0043,-0.0014,-0.0012,-0.0007,0.0001,-0.0002,-0.0027,-0.0018,-0.0064,-0.0063,-0.0151,-0.0177,-0.0288,-0.0396,-0.0415,-0.0505,-0.0542,-0.0583,-0.0582,-0.0574,-0.057,-0.0619,-0.0619,-0.0619,-0.0619,-0.0619,0,-0.0019,0.0005,0.0011,0.0029,0.007,0.0049,0.0081,0.0063,0.0053,0.008,-0.0018,-0.0006,-0.0173,-0.0242,-0.0365,-0.0474,-0.0484,-0.0577,-0.0592,-0.0563,-0.0558,-0.0603,-0.0601,-0.062,-0.062,-0.062,-0.062,0,0.0026,0.0026,0.0066,0.0083,0.0093,0.0119,0.0144,0.0171,0.0143,0.0178,0.017,0.0104,0.0017,-0.0139,-0.0294,-0.0409,-0.053,-0.0566,-0.0508,-0.0516,-0.0595,-0.0591,-0.0627,-0.0626,-0.0626,-0.0626,-0.0625,0,0.0052,0.0077,0.0114,0.0148,0.0157,0.0192,0.0227,0.0215,0.0257,0.0262,0.0301,0.023,0.021,-0.0009,-0.0226,-0.0429,-0.0479,-0.0533,-0.0573,-0.0586,-0.0597,-0.0594,-0.0591,-0.0553,-0.0552,-0.0551,-0.0551,0,0.0109,0.0117,0.0151,0.0222,0.0266,0.032,0.0371,0.0422,0.0429,0.0464,0.0519,0.0503,0.0301,0.0116,-0.0166,-0.031,-0.0505,-0.0525,-0.0558,-0.0549,-0.0517,-0.0528,-0.0527,-0.0545,-0.0545,-0.0546,-0.0546,-0.0546,0.0154,0.0191,0.024,0.0308,0.0365,0.0453,0.0519,0.0587,0.0671,0.0741,0.0705,0.0685,0.0446,0.0108,-0.0144,-0.0427,-0.0435,-0.0543,-0.0545,-0.0547,-0.0526,-0.0495,-0.0513,-0.0514,-0.0514,-0.0514,-0.0514,0,0.0224,0.0263,0.0329,0.0415,0.05,0.0509,0.0629,0.0701,0.0826,0.0869,0.0906,0.0707,0.0482,0.0195,-0.0208,-0.0449,-0.049,-0.0528,-0.0529,-0.0532,-0.0536,-0.0515,-0.0499,-0.0499,-0.05,-0.0501,0,0,0.0263,0.0344,0.0378,0.0524,0.0587,0.0713,0.0792,0.0888,0.0949,0.1015,0.1,0.093,0.0579,0.03,-0.0033,-0.0266,-0.0348,-0.0316,-0.0302,-0.0267,-0.0268,-0.0517,-0.0484,0,0,0,0,0]}],[{"header":{"parameterUnit":"m.s-1","parameterCategory":2,"la1":30.2991,"la2":30.254,"lo1":-89.0895,"lo2":-89.0444,"dy":0.0017,"dx":0.0017,"nx":28,"ny":28,"refTime":"2025-01-01T03:00:00:Z","depth":"4","parameterNumber":2,"parameterNumberName":"U-component_of_CURRENTS"},"data":[0,0,0,0,0,0,0,0,0,0,0,0,0,0,0,0,0,0,0,0,0,0,0,0,0,0,0,0,0,0,0,0,0,0,0,0,0,0,0,0,0,0,0,0,0,0,0,0,0,0,0,0,0,0,0,0,0,0,0.0919,0.092,0,0.1002,0.1002,0.1003,0.1062,0.1063,0.1064,0.1064,0.1138,0.114,0.1141,0,0,0,0,0,0,0,0,0,0,0,0,0,0.0834,0.0834,0.0919,0.0921,0.0922,0.1002,0.1002,0.1003,0.1062,0.1063,0.1064,0.1065,0.1138,0.1139,0.1141,0,0,0,0,0,0,0,0,0,0,0,0,0,0.0885,0.0835,0.0919,0.0963,0.0969,0.1001,0.1002,0.1003,0.1062,0.1063,0.1064,0.1065,0.1138,0.1139,0.1141,0.1128,0,0,0.1147,0.1147,0,0,0,0,0,0,0,0,0.0882,0.0888,0.0956,0.096,0.0966,0.1026,0.1,0.1046,0.1061,0.1022,0.1064,0.1066,0.1101,0.1106,0.1114,0.1131,0.1135,0.1147,0.1148,0.1149,0.1149,0,0,0,0,0,0,0,0.0878,0.0885,0.0948,0.0957,0.0964,0.0987,0.0995,0.1009,0.1051,0.1026,0.1031,0.1046,0.1104,0.1112,0.1116,0.1136,0.1147,0.1148,0.115,0.115,0.1244,0.1246,0,0,0,0,0,0,0.0873,0.0881,0.0946,0.0951,0.093,0.0987,0.0996,0.1003,0.1051,0.1061,0.1045,0.1048,0.1108,0.1114,0.1119,0.1198,0.1149,0.115,0.1151,0.1243,0.1245,0.1246,0,0,0,0,0,0,0.0871,0.0878,0.0942,0.0921,0.0932,0.0988,0.0994,0.1004,0.1044,0.1066,0.1076,0.108,0.111,0.1117,0.1162,0.1198,0.1151,0.1153,0.1241,0.1243,0.1245,0.1298,0,0,0,0,0,0,0.0868,0.0876,0.0898,0.0921,0.0933,0.0971,0.0994,0.1005,0.1051,0.1057,0.1099,0.1105,0.1111,0.1159,0.1164,0.12,0.1154,0.1239,0.1242,0.1245,0.1294,0.1301,0.1307,0,0,0,0,0,0.0864,0.0882,0.0898,0.0908,0.0954,0.0972,0.098,0.1021,0.1052,0.1064,0.1105,0.1106,0.1179,0.1162,0.1167,0.1204,0.1238,0.1241,0.1244,0.1291,0.13,0.1307,0,0,0,0,0,0,0.0857,0.0891,0.0909,0.0938,0.0959,0.0983,0.1017,0.1037,0.1079,0.1105,0.112,0.1129,0.1182,0.1184,0.1164,0.1239,0.121,0.1214,0.1244,0.1252,0.1259,0.1261,0.1156,0,0,0,0,0,0.0864,0.0887,0.0914,0.0937,0.0958,0.0992,0.1016,0.104,0.1073,0.1095,0.1121,0.1158,0.1192,0.1216,0.1236,0.1275,0.1277,0.1304,0.131,0.1316,0.1322,0.1358,0.1368,0.1256,0.1256,0.1256,0,0,0.0871,0.0891,0.0908,0.0938,0.0969,0.0997,0.1009,0.1053,0.1087,0.1095,0.1159,0.118,0.1206,0.1254,0.1278,0.1266,0.1348,0.132,0.1325,0.1327,0.1362,0.1373,0.1383,0.1259,0.1258,0.1258,0,0,0.0881,0.0914,0.0938,0.096,0.1007,0.1025,0.1042,0.1082,0.1119,0.1172,0.1192,0.1234,0.1284,0.1305,0.1324,0.1378,0.1379,0.1392,0.1434,0.147,0.1479,0.1487,0.1499,0.1508,0.14,0.14,0.14,0,0.0893,0.0921,0.0946,0.0974,0.1004,0.104,0.1073,0.1108,0.1156,0.1188,0.1205,0.1289,0.1309,0.1365,0.1393,0.1394,0.1409,0.1402,0.1478,0.1487,0.1494,0.1504,0.1513,0.1403,0.1403,0.1402,0.1402,0,0.0913,0.095,0.0969,0.1015,0.1044,0.1079,0.1126,0.1166,0.122,0.1251,0.1326,0.1356,0.1405,0.1421,0.1433,0.1497,0.1488,0.1479,0.1457,0.1509,0.1515,0.1524,0.1407,0.1406,0.1405,0.1405,0,0,0.0903,0.0971,0.0981,0.1013,0.1075,0.1094,0.1162,0.1218,0.1272,0.1328,0.1389,0.1456,0.1476,0.1499,0.1512,0.1548,0.1616,0.1549,0.155,0.1558,0.169,0.1625,0.1627,0.163,0.1632,0.1633,0.1671,0,0.0917,0.0965,0.1001,0.1059,0.1094,0.1148,0.1201,0.1261,0.1324,0.1385,0.1437,0.1501,0.1506,0.1544,0.1582,0.1612,0.1643,0.1606,0.1641,0.1641,0.1575,0.1637,0.164,0.1677,0.1679,0.1681,0.1682,0,0.0927,0.096,0.1016,0.1089,0.1113,0.1154,0.1246,0.1299,0.139,0.1445,0.1513,0.1551,0.1622,0.1614,0.1694,0.1678,0.1693,0.1706,0.1707,0.1634,0.1593,0.1616,0.1697,0.1696,0.1695,0.1693,0.1693,0,0.0893,0.097,0.1014,0.104,0.1127,0.1175,0.1228,0.1322,0.1377,0.1485,0.1542,0.1616,0.1674,0.1712,0.1762,0.1741,0.1837,0.18,0.1745,0.1739,0.1761,0.1751,0.1847,0.1847,0.1847,0.1846,0.1846,0,0.0883,0.0921,0.1009,0.1032,0.11,0.117,0.1253,0.132,0.1417,0.1488,0.1573,0.1636,0.1711,0.1773,0.1788,0.1807,0.1862,0.1764,0.1755,0.178,0.1773,0.1766,0.1756,0.1848,0.1847,0.1847,0.1847,0,0.084,0.0893,0.0949,0.1049,0.1086,0.1137,0.1255,0.1311,0.142,0.1514,0.1555,0.1672,0.1766,0.182,0.1888,0.1841,0.186,0.1846,0.1879,0.1868,0.1722,0.1714,0.177,0.1769,0.1767,0.1766,0.1765,0,0.0817,0.0842,0.0949,0.099,0.1044,0.1131,0.1192,0.1301,0.1362,0.153,0.1566,0.1696,0.1769,0.18,0.1864,0.1885,0.1864,0.1843,0.1771,0.1734,0.1719,0.1714,0.1709,0.1762,0.1762,0.1762,0.1761,0,0.0778,0.0825,0.0876,0.0961,0.1031,0.1096,0.1194,0.1222,0.1359,0.1463,0.1551,0.1607,0.1708,0.1755,0.1797,0.1804,0.1841,0.1827,0.1828,0.176,0.1725,0.1711,0.1707,0.1756,0.1757,0.1757,0.1758,0,0.0758,0.0783,0.0859,0.0928,0.1004,0.1052,0.1103,0.1185,0.1248,0.1421,0.145,0.1592,0.1696,0.1717,0.1757,0.1768,0.1727,0.1647,0.1657,0.1663,0.1615,0.1554,0.1538,0,0,0,0,0,0.0737,0.0764,0.0823,0.0893,0.0962,0.1008,0.1105,0.1158,0.128,0.131,0.1374,0.1466,0.1542,0.1606,0.1596,0.1712,0.1732,0.1692,0.1644,0.1727,0.1733,0.1689,0,0,0,0,0,0,0.0725,0.0779,0.0806,0.0848,0.0887,0.0955,0.1008,0.1089,0.1108,0.1237,0.1283,0.1383,0.1473,0.1539,0.1571,0.1591,0.1532,0.1774,0.1771,0.1724,0.1729,0.1734,0.1691,0,0,0,0,0]},{"header":{"parameterUnit":"m.s-1","parameterCategory":2,"la1":30.2991,"la2":30.254,"lo1":-89.0895,"lo2":-89.0444,"dy":0.0017,"dx":0.0017,"nx":28,"ny":28,"refTime":"2025-01-01T03:00:00:Z","depth":"4","parameterNumber":3,"parameterNumberName":"V-component_of_CURRENTS"},"data":[0,0,0,0,0,0,0,0,0,0,0,0,0,0,0,0,0,0,0,0,0,0,0,0,0,0,0,0,0,0,0,0,0,0,0,0,0,0,0,0,0,0,0,0,0,0,0,0,0,0,0,0,0,0,0,0,0,0,0.0288,0.0287,0,0.0256,0.0256,0.0256,0.0228,0.0227,0.0227,0.0226,0.0154,0.0152,0.0151,0,0,0,0,0,0,0,0,0,0,0,0,0,0.0293,0.0293,0.0288,0.0287,0.0287,0.0256,0.0256,0.0256,0.0228,0.0227,0.0227,0.0226,0.0154,0.0152,0.0151,0,0,0,0,0,0,0,0,0,0,0,0,0,0.0281,0.0293,0.0288,0.0267,0.0265,0.0256,0.0256,0.0256,0.0228,0.0227,0.0227,0.0226,0.0155,0.0153,0.015,0.0154,0,0,0.0144,0.0143,0,0,0,0,0,0,0,0,0.0282,0.0282,0.0271,0.0269,0.0266,0.0243,0.0231,0.0219,0.0228,0.0245,0.0226,0.0225,0.0179,0.0174,0.0175,0.0151,0.0148,0.0144,0.0142,0.0142,0.0141,0,0,0,0,0,0,0,0.0283,0.0283,0.0278,0.027,0.0267,0.0248,0.0246,0.0229,0.0218,0.0243,0.0241,0.0233,0.0177,0.0177,0.0173,0.0147,0.0144,0.0142,0.0141,0.014,0.009,0.009,0,0,0,0,0,0,0.0284,0.0284,0.0279,0.0277,0.0269,0.0249,0.0247,0.0253,0.0219,0.0213,0.0234,0.0232,0.0181,0.0175,0.017,0.0154,0.0142,0.014,0.0138,0.009,0.009,0.009,0,0,0,0,0,0,0.0285,0.0285,0.028,0.0276,0.0274,0.025,0.0257,0.0253,0.0247,0.0212,0.0205,0.0231,0.018,0.0173,0.0151,0.0152,0.0139,0.0137,0.009,0.009,0.009,0.0134,0,0,0,0,0,0,0.0286,0.0286,0.0292,0.0277,0.0274,0.0281,0.0258,0.0253,0.0243,0.024,0.0207,0.02,0.0179,0.0154,0.0149,0.0148,0.0135,0.009,0.009,0.009,0.0133,0.0136,0.0138,0,0,0,0,0,0.0286,0.0296,0.0293,0.0292,0.0284,0.0282,0.0279,0.026,0.0243,0.025,0.022,0.0201,0.0149,0.0153,0.0146,0.0145,0.009,0.009,0.009,0.0132,0.0135,0.0138,0,0,0,0,0,0,0.0297,0.0294,0.029,0.0297,0.0293,0.0276,0.0272,0.0262,0.0246,0.0234,0.0203,0.0195,0.0175,0.0154,0.0159,0.013,0.0115,0.0114,0.0149,0.0152,0.0155,0.0172,0.0133,0,0,0,0,0,0.0304,0.0316,0.0305,0.0313,0.0308,0.0291,0.0286,0.0275,0.0256,0.0249,0.0225,0.0195,0.0172,0.0157,0.0135,0.0123,0.0098,0.0116,0.0119,0.0121,0.013,0.0091,0.0091,0.0089,0.0089,0.0089,0,0,0.0308,0.031,0.0314,0.0317,0.0307,0.0309,0.0287,0.0279,0.028,0.0242,0.0231,0.0204,0.017,0.0155,0.0144,0.0136,0.0108,0.0121,0.0123,0.0131,0.0091,0.0091,0.0091,0.0089,0.0089,0.0089,0,0,0.0323,0.0324,0.0336,0.0335,0.0326,0.0319,0.0318,0.0302,0.0292,0.0279,0.025,0.0229,0.0191,0.0175,0.0159,0.0163,0.0124,0.0148,0.0175,0.0137,0.0137,0.0137,0.0107,0.0104,0.0148,0.0148,0.0149,0,0.0328,0.0345,0.0338,0.0348,0.0347,0.0325,0.0334,0.0324,0.0305,0.0299,0.0277,0.0232,0.0204,0.019,0.0189,0.0171,0.0141,0.0168,0.0141,0.0141,0.0139,0.0109,0.0105,0.0151,0.015,0.015,0.015,0,0.0349,0.0363,0.0366,0.0377,0.0378,0.038,0.0366,0.0362,0.0341,0.033,0.0309,0.0273,0.0247,0.0232,0.0209,0.0193,0.0171,0.015,0.0137,0.0143,0.011,0.0105,0.0154,0.0153,0.0152,0.0152,0,0,0.0361,0.038,0.0381,0.0394,0.0393,0.0397,0.0397,0.0396,0.0395,0.0368,0.0364,0.0327,0.0304,0.0285,0.0255,0.0225,0.0191,0.0186,0.0183,0.0163,0.0105,0.0072,0.0063,0.0157,0.0157,0.0156,0.0086,0,0.0379,0.0412,0.0414,0.0438,0.045,0.0437,0.0445,0.0439,0.042,0.041,0.0374,0.0354,0.0324,0.0306,0.0274,0.0211,0.0179,0.0212,0.0097,0.0094,0.0069,0.0057,0.0154,0.0082,0.0081,0.008,0.0079,0,0.0395,0.042,0.0453,0.0477,0.0479,0.049,0.0496,0.0498,0.048,0.0462,0.0438,0.0402,0.0367,0.0331,0.0238,0.0256,0.0187,0.0137,0.0132,0.0085,0.0052,0.0072,0.007,0.007,0.0071,0.0072,0.0072,0,0.0411,0.0442,0.0475,0.0482,0.0505,0.0514,0.0521,0.0515,0.0519,0.0491,0.0484,0.0435,0.0401,0.0319,0.0215,0.0218,0.0102,0.0091,0.0002,-0.0001,0.0032,0.0032,0.002,0.0021,0.0021,0.0021,0.0021,0,0.043,0.0454,0.0486,0.0502,0.0534,0.0538,0.0561,0.0555,0.0553,0.056,0.0511,0.0495,0.039,0.0312,0.0222,0.0094,0.0102,0.0007,-0.0024,0.0052,0.0056,0.0028,0.003,0.0018,0.0019,0.0019,0.002,0,0.0439,0.0463,0.0498,0.0531,0.0543,0.0562,0.059,0.0605,0.0596,0.06,0.0592,0.0529,0.0423,0.0315,0.0173,0.0097,-0.0018,-0.0067,0.0026,0.0001,-0.0092,-0.0087,-0.0162,-0.0164,-0.0165,-0.0167,-0.0168,0,0.0446,0.0469,0.0516,0.0538,0.0553,0.0585,0.0611,0.0623,0.0638,0.0619,0.0621,0.0528,0.0469,0.026,0.0136,-0.004,-0.0069,-0.0127,-0.0108,-0.0089,-0.0112,-0.0105,-0.0098,-0.017,-0.0171,-0.0171,-0.0171,0,0.0454,0.0472,0.05,0.0549,0.0582,0.0624,0.0657,0.0674,0.0684,0.0681,0.0634,0.0528,0.0403,0.0251,0.0102,-0.0021,-0.0086,-0.0144,-0.0141,-0.0123,-0.01,-0.0119,-0.0111,-0.0177,-0.0176,-0.0175,-0.0175,0,0.0451,0.047,0.0508,0.0547,0.0597,0.0643,0.0665,0.0681,0.0696,0.0679,0.0658,0.0533,0.0461,0.0258,0.0126,-0.0006,-0.0034,-0.007,-0.0072,-0.0067,-0.0024,0.002,-0.0047,0,0,0,0,0,0.0441,0.0463,0.0503,0.0548,0.0602,0.0633,0.0689,0.0708,0.0723,0.0695,0.0679,0.0564,0.036,0.0275,0.0137,0.0093,-0.0062,-0.0075,-0.0104,-0.0206,-0.02,-0.0168,0,0,0,0,0,0,0.0432,0.0469,0.0495,0.0544,0.0576,0.0637,0.0678,0.0694,0.068,0.0674,0.0573,0.052,0.0327,0.0436,0.013,0.0089,0.0049,-0.0167,-0.0171,-0.0209,-0.0204,-0.0199,-0.0164,0,0,0,0,0]}]]